Погода в Келлоге

Погода в Келлоге : погода сейчас, прогноз погоды и архив. Всё, что Вы хотите узнать о погоде в Келлоге!

Поиск расширенной информации на нашем сайте:

Другие новости

Новости СМИ2

Главная страница сайта

Новости сайта

03.07.2017

Напоминаем, что на нашем специализированном сайте Метеоцентр.Азия вы можете получить высокодетализированные автоматические прогнозы погоды по пунктам России, СНГ и мира в авиационном формате (включающие направление и скорость ветра, видимость, явления погоды, количество и форму облачности, нижнюю и верхнюю границу облачности).

Рекомендуем: Силиконовая фасадная краска.

Погода в Келлоге - сегодня

Время (UTC), дата Ветер
(°,м/с) 
Видим.   Явления Облачность Т
(°С)
Тd
(°С)
f(%) Тe
(°С)
Pmin
(гПа)
dP
(гПа)
Po
(мм)
O2
(г/м3)
Тmin Tmax R s Состояние
почвы
18 19.09.17 330 (СЗ) н/о    н/о 
+3.5 +2.6 94 +4  1013.6  0.5  755  300           
21 19.09.17 260 (З) н/о    н/о 
+3 +2.4 96 +4  1014.1  0.5  755  301           
00 20.09.17 260 (З) н/о    н/о 
+3.6 +3.2 97 +4  1014.8  0.7  755  300  +2.9         
03 20.09.17 280 (З) н/о    н/о 
+5.1 +4 93 +6  1015.5  0.7  756  298           
06 20.09.17 240 (ЮЗ) н/о    н/о 
+6.5 +3.9 83 +7  1016  0.6  756  297           
09 20.09.17 250 (З) н/о    н/о 
+8.1 +3.4 72 +9  1016.4  0.4  757  296           
12 20.09.17 340 (С) н/о    н/о 
+7.1 +3.7 79 +8  1016.8  0.4  757  297    +8.3       
15 20.09.17 тихо ()   н/о    н/о 
+4.5 +3.8 95 +5  1017  0.1  757  300           
18 20.09.17 тихо ()   н/о    н/о 
+1.3 +1 98 +1  1016.5  -0.6  757  303           
21 20.09.17 тихо ()   н/о    н/о 
+2.2 +1.8 97 +2  1015.4  -1.1  756  302           
00 21.09.17 020 (С) н/о    н/о 
+2.7 +2.4 98 +3  1014.4  -0.9  755  301  +0.1         
03 21.09.17 020 (С) н/о    н/о 
+4.8 +3.7 93 +6  1013.7  -0.7  755  298           
06 21.09.17 060 (СВ) н/о    н/о 
+7.5 +3.7 77 +8  1012.5  -1.1  754  295           
09 21.09.17 030 (СВ) н/о    н/о 
+7.7 +2.7 71 +9  1011.2  -1.3  753  295           
12 21.09.17 010 (С) н/о    н/о 
+6.8 +3.7 81 +7  1010.5  -0.7  752  295    +7.8       
15 21.09.17 010 (С) н/о    н/о 
+5.6 +4 89 +6  1009.6  -1  752  296           
18 21.09.17 330 (СЗ) н/о    н/о 
+4.8 +4.1 95 +6  1008.8  -1  751  297           
21 21.09.17 350 (С) н/о    н/о 
+4.5 +3.9 96 +5  1008.4  -0.4  751  297           
00 22.09.17 360 (С) н/о    н/о 
+3 +2.3 95 +2  1008.9  0.5  751  299  +3         
03 22.09.17 360 (С) н/о    н/о 
+1.6 +0.6 93 1010.1  1.1  752  301  +1.5         
06 22.09.17 360 (С) н/о    н/о 
+1.9 -0.2 86 1011.3  1.2  753  301           
12 22.09.17 350 (С) н/о    н/о 
+1.6 -2.1 76 1014.1  1.7  755  303    +2.9       
00 23.09.17 360 (С) н/о    н/о 
+0.5 -2.3 81 -1  1017.1  1.1  757  305  +0.1         
12 23.09.17 360 (С) н/о    н/о 
+3 +0.1 81 +2  1020.5  1.1  760  303    +4       
00 24.09.17 340 (С) н/о    н/о 
+0.3 -3.5 76 -1  1023.2  1.1  762  307  +0.3         
Время (UTC), дата Ветер
(°,м/с) 
Видим.   Явления Облачность Т
(°С)
Тd
(°С)
f(%) Тe
(°С)
Pmin
(гПа)
dP
(гПа)
Po
(мм)
O2
(г/м3)
Тmin Tmax R s Состояние
почвы

Для получения пояснительной информации подведите курсор к названию столбца.

ПОГОДА в Келлоге - архив

Всё, что Вы хотите узнать о погоде в Келлоге - удобно и подробно!

Выберите нужную дату (начиная с 1 января 2015* года) и нажмите кнопку "Найти".
Будут отображены архивные сводки погоды по пункту Келлог, начиная с указанной даты.


Отображать данные в формате CSV (для использования в таблицах Excel)


Внимание! Наш архив погоды предназначен исключительно для личного некоммерческого использования в познавательных целях. Если Вам необходимы официальные справки о состоянии погоды (для производственных, юридических, коммерческих и т.п. целей), обращайтесь в органы Росгидромета.

*Примечание: данная дата относится к архиву по метеостанциям СССР (Россия, СНГ, Балтия).
Архив по метеостанциям Зарубежной Европы и Азии (кроме Китая) хранится 10 дней, по другим регионам земного шара (Китай, Африка, Америка, Австралия, Океания) - 1 день.

Келлог - район местоположения метеостанции


Название, широта, долгота, высота метеостанции:
Келлог 62.4°ш. 86.6°д. 58 м над ур. моря [Российская Федерация]

Дополнительная информация

В oтличие oт бoльшинства пoгoдных сайтoв мы публикуем пoдрoбную метеoинфoрмацию в детальнoм прoфессиoнальнoм фoрмате.

Характеристики температуры и влажнoсти вoздуха измеряются на высoте 2 м в тени вдали oт зданий и деревьев.
Скoрoсть ветра измеряется на высoте 10 м (на урoвне рoста челoвека скoрoсть ветра ниже в 1.5-2 раза). Если метеoстанция нахoдится в гoрoде или в лесу, тo скoрoсть ветра занижена на 2-4 м/с пo сравнению с oткрытым местoм. Скoрoсть ветра над акватoриями крупных рек и oзёр, а также на вершинах хoлмoв на 2-5 м/с выше, чем в oбычных услoвиях.
Атмoсфернoе давление в разных тoчках местнoсти мoжет значительнo oтличаться oт давления на метеoстанции, в зависимoсти oт услoвий рельефа (при пoдъёме на 10 м давление пoнижается примернo на 1 мм рт.ст.).